Weather History for KACP - January, 2014

Change the Weather History Date:

Monday, January 20, 2014

  Actual Average (KPOE) Record (KPOE)
Temperature  
Mean Temperature 50 °F -  
Max Temperature 72 °F 58 °F 77 °F (2012)
Min Temperature 28 °F 38 °F 26 °F (2001)
Degree Days  
Heating Degree Days 15    
Moisture  
Dew Point 45 °F    
Average Humidity 84    
Maximum Humidity 99    
Minimum Humidity 48    
Precipitation  
Precipitation 0.00 in - - ()
Sea Level Pressure  
Sea Level Pressure 30.03 in    
Wind  
Wind Speed 2 mph (SSW)    
Max Wind Speed 9 mph    
Max Gust Speed -    
Visibility 8 miles    
Events Fog    
Averages and records for this station are not official NWS values.
T = Trace of Precipitation, MM = Missing Value Source: NWS Daily Summary

Daily Weather History Graph

Daily Weather History Graph

Search for Another Location

Airport or City:

Trip Planner

Search our weather history database for the weather conditions in past years. The results will help you decide how hot, cold, wet, or windy it might be!

Date:

Astronomy

Jan. 20, 2014 Rise Set
Actual Time 7:07 AM CST 5:36 PM CST
Civil Twilight 6:41 AM CST 6:02 PM CST
Nautical Twilight 6:12 AM CST 6:31 PM CST
Astronomical Twilight 5:43 AM CST 7:00 PM CST
Moon 9:49 PM CST (1/20) 9:27 AM CST (1/20)
Length of Visible Light 11h 20m
Length of Day
10h 28m
Waning Gibbous, 82% of the Moon is Illuminated
Jan 20
Waning Gibbous
Jan 23
Last Quarter
Jan 30
New
Feb 6
First Quarter
Feb 14
Full

Hourly Weather History & Observations

Time (CST) Temp. Dew Point Humidity Pressure Visibility Wind Dir Wind Speed Gust Speed Precip Events Conditions
12:15 AM 30.4 °F 29.1 °F 95% 30.15 in 10.0 mi Calm Calm - N/A   Clear
12:35 AM 30.2 °F 28.8 °F 94% 30.15 in 10.0 mi Calm Calm - N/A   Clear
12:55 AM 30.2 °F 28.9 °F 95% 30.14 in 10.0 mi Calm Calm - N/A   Clear
1:15 AM 30.0 °F 28.6 °F 94% 30.14 in 10.0 mi Calm Calm - N/A   Clear
1:35 AM 30.2 °F 28.8 °F 94% 30.13 in 10.0 mi Calm Calm - N/A   Clear
1:55 AM 30.0 °F 28.4 °F 94% 30.13 in 10.0 mi Calm Calm - N/A   Clear
2:15 AM 29.8 °F 28.4 °F 94% 30.12 in 10.0 mi Calm Calm - N/A   Clear
2:35 AM 29.3 °F 27.9 °F 94% 30.12 in 10.0 mi Calm Calm - N/A   Clear
2:55 AM 28.9 °F 27.5 °F 94% 30.11 in 10.0 mi Calm Calm - N/A   Clear
3:15 AM 28.9 °F 27.3 °F 94% 30.11 in 10.0 mi Calm Calm - N/A   Clear
3:35 AM 28.6 °F 26.8 °F 93% 30.11 in 10.0 mi Calm Calm - N/A   Clear
3:55 AM 28.9 °F 27.3 °F 94% 30.11 in 10.0 mi Calm Calm - N/A   Clear
4:15 AM 28.9 °F 27.5 °F 94% 30.10 in 10.0 mi Calm Calm - N/A   Scattered Clouds
4:35 AM 29.1 °F 27.5 °F 94% 30.09 in 10.0 mi Calm Calm - N/A   Mostly Cloudy
4:55 AM 30.0 °F 28.9 °F 96% 30.09 in 0.2 mi Calm Calm - N/A Fog Light Freezing Fog
5:15 AM 30.2 °F 29.3 °F 96% 30.09 in 0.2 mi Calm Calm - N/A Fog Light Freezing Fog
5:35 AM 32.0 °F 31.1 °F 96% 30.09 in 0.2 mi Calm Calm - N/A Fog Fog
5:55 AM 32.2 °F 32.0 °F 99% 30.08 in 0.2 mi Calm Calm - N/A Fog Fog
6:15 AM 32.0 °F 31.6 °F 99% 30.09 in 0.2 mi Calm Calm - N/A Fog Fog
6:35 AM 32.4 °F 32.0 °F 99% 30.08 in 0.2 mi Calm Calm - N/A Fog Fog
6:55 AM 32.9 °F 32.0 °F 96% 30.09 in 0.2 mi Calm Calm - N/A Fog Fog
7:15 AM 33.4 °F 32.5 °F 96% 30.09 in 0.2 mi Calm Calm - N/A Fog Fog
7:35 AM 33.3 °F 32.4 °F 96% 30.09 in 0.2 mi Calm Calm - N/A Fog Fog
7:55 AM 34.5 °F 33.6 °F 97% 30.09 in 0.2 mi Calm Calm - N/A Fog Fog
8:15 AM 36.5 °F 35.6 °F 97% 30.09 in 0.2 mi Calm Calm - N/A Fog Fog
8:35 AM 37.4 °F 36.7 °F 97% 30.09 in 0.2 mi Calm Calm - N/A Fog Fog
8:55 AM 39.9 °F 39.2 °F 97% 30.09 in 0.2 mi Calm Calm - N/A Fog Fog
9:15 AM 42.4 °F 41.7 °F 97% 30.10 in 0.8 mi Calm Calm - N/A   Overcast
9:35 AM 45.9 °F 45.1 °F 97% 30.10 in 10.0 mi Calm Calm - N/A   Mostly Cloudy
9:55 AM 49.1 °F 48.0 °F 96% 30.10 in 10.0 mi Calm Calm - N/A   Clear
10:15 AM 52.2 °F 48.9 °F 89% 30.10 in 10.0 mi South 4.6 mph - N/A   Clear
10:35 AM 55.8 °F 50.2 °F 82% 30.10 in 10.0 mi SSW 6.9 mph - N/A   Clear
10:55 AM 57.9 °F 50.2 °F 75% 30.09 in 10.0 mi SSW 6.9 mph - N/A   Clear
11:15 AM 57.4 °F 50.4 °F 77% 30.08 in 10.0 mi SSW 6.9 mph - N/A   Clear
11:35 AM 60.6 °F 49.8 °F 68% 30.06 in 10.0 mi South 4.6 mph - N/A   Clear
11:55 AM 65.1 °F 50.5 °F 59% 30.05 in 10.0 mi SW 8.1 mph - N/A   Clear
12:15 PM 66.0 °F 52.2 °F 61% 30.03 in 10.0 mi SW 6.9 mph - N/A   Clear
12:35 PM 69.3 °F 53.6 °F 57% 30.01 in 10.0 mi SSW 6.9 mph - N/A   Clear
12:55 PM 69.4 °F 54.1 °F 58% 30.00 in 10.0 mi WSW 8.1 mph - N/A   Clear
1:15 PM 69.3 °F 54.3 °F 59% 29.99 in 10.0 mi South 8.1 mph - N/A   Clear
1:35 PM 68.9 °F 54.0 °F 59% 29.98 in 10.0 mi South 6.9 mph - N/A   Clear
1:55 PM 70.2 °F 54.0 °F 56% 29.97 in 10.0 mi South 5.8 mph - N/A   Clear
2:15 PM 70.9 °F 54.7 °F 56% 29.96 in 10.0 mi SSE 5.8 mph - N/A   Clear
2:35 PM 71.4 °F 55.4 °F 57% 29.95 in 10.0 mi SSE 4.6 mph - N/A   Clear
2:55 PM 71.6 °F 55.4 °F 57% 29.94 in 10.0 mi SSW 4.6 mph - N/A   Clear
3:15 PM 72.0 °F 55.2 °F 55% 29.94 in 10.0 mi ESE 3.5 mph - N/A   Scattered Clouds
3:35 PM 72.5 °F 51.8 °F 48% 29.94 in 10.0 mi SSW 9.2 mph - N/A   Scattered Clouds
3:55 PM 71.8 °F 52.3 °F 50% 29.94 in 10.0 mi SSW 6.9 mph - N/A   Clear
4:15 PM 71.2 °F 52.7 °F 52% 29.93 in 10.0 mi South 6.9 mph - N/A   Clear
4:35 PM 70.7 °F 53.8 °F 55% 29.93 in 10.0 mi South 5.8 mph - N/A   Clear
4:55 PM 69.3 °F 54.9 °F 60% 29.93 in 10.0 mi South 8.1 mph - N/A   Clear
5:15 PM 67.6 °F 55.4 °F 65% 29.93 in 10.0 mi South 5.8 mph - N/A   Clear
5:35 PM 66.2 °F 56.3 °F 70% 29.93 in 10.0 mi South 4.6 mph - N/A   Clear
5:55 PM 64.4 °F 56.3 °F 75% 29.93 in 10.0 mi South 3.5 mph - N/A   Clear
6:15 PM 63.5 °F 56.8 °F 79% 29.95 in 10.0 mi South 4.6 mph - N/A   Clear
6:35 PM 62.4 °F 57.0 °F 82% 29.95 in 10.0 mi South 4.6 mph - N/A   Clear
6:55 PM 62.2 °F 57.2 °F 84% 29.95 in 10.0 mi South 4.6 mph - N/A   Clear
7:15 PM 61.7 °F 57.2 °F 85% 29.95 in 10.0 mi South 5.8 mph - N/A   Clear
7:35 PM 61.2 °F 57.4 °F 87% 29.96 in 10.0 mi South 4.6 mph - N/A   Clear
7:55 PM 61.0 °F 57.9 °F 90% 29.96 in 10.0 mi South 5.8 mph - N/A   Clear
8:15 PM 60.8 °F 58.1 °F 91% 29.96 in 10.0 mi South 4.6 mph - N/A   Clear
8:35 PM 60.1 °F 57.9 °F 93% 29.97 in 10.0 mi SSW 4.6 mph - N/A   Clear
8:55 PM 59.7 °F 57.9 °F 94% 29.98 in 10.0 mi South 3.5 mph - N/A   Clear
9:15 PM 59.2 °F 57.6 °F 94% 29.98 in 7.0 mi SSW 3.5 mph - N/A   Scattered Clouds
9:35 PM 59.4 °F 58.1 °F 96% 29.99 in 7.0 mi South 3.5 mph - N/A   Mostly Cloudy
9:55 PM 59.0 °F 57.7 °F 96% 29.99 in 5.0 mi SSW 3.5 mph - N/A   Overcast
10:15 PM 59.4 °F 58.1 °F 96% 29.99 in 5.0 mi SSW 3.5 mph - N/A   Overcast
10:35 PM 59.2 °F 57.7 °F 95% 29.99 in 5.0 mi SSW 4.6 mph - N/A   Overcast
10:55 PM 59.2 °F 58.1 °F 96% 30.00 in 4.0 mi SSW 3.5 mph - N/A   Overcast
11:15 PM 59.4 °F 58.1 °F 96% 30.00 in 4.0 mi SSW 4.6 mph - N/A   Overcast
11:35 PM 59.0 °F 57.6 °F 95% 29.99 in 4.0 mi SSW 4.6 mph - N/A   Overcast
11:55 PM 59.2 °F 58.1 °F 96% 29.99 in 4.0 mi SW 5.8 mph - N/A   Overcast